Location: Anna District 4 Election Precinct
(37.4833°N, 89.2195°W)
Time: 23:49:58
(UTC+00:00)

NOAA 12 - Pass Details

Date: 11 March 2021
Orbit: 795 x 815 km, 98.5° (Epoch: 11 April)

Event Time Altitude Azimuth Distance (km) Brightness Sun altitude
Rises 11:23:28 0° 24° (NNE) 3,341 7.7 -10.7°
Reaches altitude 10° 11:26:06 10° 35° (NE) 2,402 7.1 -10.2°
Maximum altitude 11:30:45 30° 96° (E) 1,410 6.3 -9.3°
Drops below altitude 10° 11:35:20 10° 157° (SSE) 2,377 6.8 -8.4°
Sets 11:37:55 0° 168° (SSE) 3,299 7.4 -7.9°
